ASTRA 1N

Last updated on Thu Oct 30 2025 00:02:48 GMT+0000 (Coordinated Universal Time)

1 37775U 11041A 25302.26083336 .00000130 00000+0 00000+0 0 9991 2 37775 0.0780 44.9717 0001210 165.3671 300.6674 1.00273985 42211
UTC large
Height (km)
Speed (km/s)
/
Latitude / Longitude
Inclination (degrees)
Orbital Period (minutes)
Azimuth
Elevation
Range (km)
Doppler Factor

Next 0 passes for location: London (51.5072 / 0.1276)

Sorry there are no passes over London.